Oshawa Airport
CYOO : now visible

Airfield :











YOU CAN JOIN US ON...

 
LOGIN :

Register | Disclaimer

   EN    FR    IT 

 









Legend :    VFR   Marginal VFR   IFR   Intensive IFR   Very Intensive IFR
Visi :
Ceiling :
>= 8 km
>= 3000ft
5 to 8 km
1000 to 3000 ft
1500m to 5 km
500 to 1000 ft
800 to 1500m
200 to 500 ft
< 800m
< 200 ft
Symbols :   Thunderstorms  Fog  Heavy snow  Heavy precipitations  Wind > 20 kt






- Airport Elevation : 459 ft
- IATA code : YOO


CYOO - Oshawa

CURRENT METAR :
  • 042100Z AUTO 31019G29KT 9SM CLR M04/M16 A3009 RMK SLP202

EXPIRED METARs :
  • 042000Z AUTO 32017G27KT 9SM CLR M05/M17 A3009 RMK SLP201
  • 041900Z AUTO 33018G23KT 9SM CLR M05/M17 A3008 RMK SLP197

TAF TAF CYOO
Valid from the 04 at 20:00 until the 05 at 08:00 UTC


041938Z 0420/0508 33015G25KT P6SM SKC
BECMG 0500/0502 33012KT RMK FCST BASED ON AUTO OBS. NXT FCST BY 050200Z
CZYZ FIR / North America



MET'MAP, your aeronautical weather chart ! - Copyright ORBIFLY December 2007 - Disclaimer

ORBIFLY MET'MAP TEAM :

Programming & Development : Alexandra Zaïnal
Concept & original design : Baudouin d'Aumeries
Assistance for programming : Marc-Olivier Méhu
Technical & hardware support : Manuel Goepfert

Contact : metmap@orbifly.com




SOURCES & CREDITS :

   NOAA       Earth
Advisory